User: anonymous   Login
Location: Unspecified
(0.0000°N, 0.0000°E)
Time: 18:25:30
(UTC+00:00)
Language:

AO-85 - Orbit

View from above orbital plane
View from above orbital plane
View from above satellite
View from above satellite

Ground track
Ground track

The orbit data is extracted from the following two-line orbital elements,

1 40967U 15058D   17075.44226204  .00000178  00000-0  39861-4 0 04261
2 40967 064.7776 140.1871 0173939 112.4194 249.5440 14.75347657063434
Epoch (UTC): 16 March 2017 10:36:51
Eccentricity: 0.0173939
inclination: 64.7776°
perigee height: 522 km
apogee height: 766 km
right ascension of ascending node: 140.1871°
argument of perigee: 112.4194°
revolutions per day: 14.75347657
mean anomaly at epoch: 249.5440°
orbit number at epoch: 6343

The dashed part of the orbit path shows where the satellite is in the earth's shadow,  

DLR